Tracking 19212 objects as of 16-Jul-2018
HD Live streaming from Space Station
objects crossing your sky now

FENGYUN 1C DEB

Track FENGYUN 1C DEB now!
10-day predictions


NORAD ID: 38721
Int'l Code: 1999-025ETN
Perigee: 790.5 km
Apogee: 903.9 km
Inclination: 99.0 °
Period: 101.7 minutes
Semi major axis: 7218 km
RCS: 0.0013 m2 (small)
Launch date: May 10, 1999
Source: People's Republic of China (PRC)
Launch site: Taiyaun Space Center, China (TSC)

Note: This is SATELLITE DEBRIS
aabbcc
Your satellite tracking list
Your tracking list is empty




NASA's NSSDC Master Catalog

Two Line Element Set (TLE):
1 38721U 99025ETN 18185.38789739  .00000738  00000-0  38820-3 0  9995
2 38721  98.9512 251.4189 0078516 222.1642 137.3476 14.15665852456158
Source of the keplerian elements: AFSPC